Theta_e
322 322 323 323 323 322 321 322 322 322 322 322 321 321 319 318 314 311 311 312 310 316 316 311 314 316 314 313 314 313 312 313 312 309 309 307 306 310 310 309 311 309 306 305 305 305 306 308 309 312 315 315 314 313 312 311 311 313 314 314 312 309 309 309 308 311 310 310 310 309 309 309 308 309
322 320 320 320 323 321 321 320 321 321 322 321 321 320 319 317 315 313 311 310 310 314 314 312 311 314 313 313 313 312 310 312 311 308 306 305 305 308 308 308 308 307 304 303 303 306 307 309 312 314 315 314 311 311 311 311 312 313 313 313 313 312 312 312 312 312 311 310 310 309 308 308 309 310
323 321 321 318 321 321 322 319 320 321 321 321 320 319 318 317 315 315 312 309 311 315 313 312 314 314 313 313 312 312 311 311 309 305 304 304 308 309 307 307 306 305 305 303 304 310 310 309 310 313 314 313 313 311 313 314 314 315 313 310 311 312 312 312 314 313 312 311 309 308 308 309 309 308
323 322 320 320 321 320 320 321 322 321 320 321 320 318 317 316 315 315 314 312 312 313 314 311 313 314 312 312 311 309 310 310 309 304 303 304 309 304 303 306 305 305 305 305 308 314 314 314 314 313 314 314 314 313 314 315 315 313 310 309 310 311 310 312 312 311 310 309 308 307 307 307 307 307
323 322 321 321 321 320 320 319 319 320 319 318 320 318 316 315 314 315 312 311 309 309 310 311 311 312 312 310 310 309 307 305 304 305 302 303 301 301 301 302 304 304 304 304 306 308 309 312 315 310 308 311 311 309 310 310 308 309 309 307 306 307 308 309 309 310 309 307 306 306 306 306 305 308
323 321 321 321 320 320 321 319 319 317 317 317 317 315 316 315 313 314 313 309 310 308 307 308 309 310 311 308 308 308 306 304 303 302 302 302 301 301 300 301 302 304 305 304 305 306 307 307 308 306 306 307 307 307 307 307 306 307 304 304 306 308 308 309 307 307 307 305 304 304 304 304 305 305
319 319 320 319 319 321 319 316 315 315 315 315 316 314 314 314 313 313 313 311 307 307 306 307 307 307 307 306 307 308 307 306 304 302 301 302 302 303 300 301 302 303 303 303 304 305 305 305 306 305 306 305 304 304 304 304 304 303 302 302 306 305 306 305 305 305 306 304 303 303 303 304 304 304
319 319 318 318 318 318 316 314 313 312 313 311 312 312 312 313 313 312 311 313 310 306 306 304 308 307 305 302 305 308 306 304 303 303 301 301 301 301 302 300 301 302 303 302 303 305 305 305 305 304 305 305 303 303 303 303 302 302 302 302 303 302 301 301 301 302 304 305 303 302 302 302 303 303
319 319 319 318 316 314 315 312 312 311 311 311 310 311 311 312 312 311 310 309 309 308 307 305 305 305 303 303 303 306 305 302 301 300 300 301 300 300 300 302 302 302 303 303 303 304 304 304 304 304 303 303 302 302 302 302 301 302 302 302 301 300 300 299 299 299 299 300 302 302 300 300 301 303
319 319 317 316 315 314 314 313 312 313 313 315 312 311 310 312 311 309 307 307 308 309 308 305 302 302 302 300 301 305 305 303 301 299 299 300 300 300 300 300 302 303 302 302 302 302 302 303 303 304 303 303 301 301 301 301 301 301 301 300 300 299 298 298 297 297 297 297 297 298 301 298 300 302
316 317 316 315 315 315 314 314 315 315 314 316 313 313 312 310 310 309 307 307 306 306 304 302 303 303 302 302 301 304 306 303 302 300 298 297 299 300 300 300 302 303 302 302 303 302 303 304 302 302 303 302 302 302 301 301 301 301 300 299 298 298 298 298 297 297 296 296 295 295 295 298 299 300
314 313 313 313 312 312 311 313 313 314 313 313 313 312 313 313 311 310 308 306 304 303 303 303 301 300 301 300 302 305 303 301 300 301 299 298 298 299 300 301 301 302 302 301 301 303 303 302 302 302 302 302 302 301 301 302 302 301 299 298 297 298 298 298 298 297 297 297 296 295 295 295 295 298
314 314 314 314 314 316 314 310 310 311 313 312 311 311 312 312 311 310 310 308 305 304 303 302 302 300 299 300 301 300 300 301 302 302 300 299 299 299 299 301 302 302 301 302 301 301 301 301 300 300 299 300 301 302 302 301 303 301 298 297 297 298 297 298 298 298 297 297 297 296 296 295 295 295
316 317 318 321 321 316 314 309 303 301 303 308 310 309 310 310 310 308 308 309 308 307 305 304 304 300 299 299 301 301 302 304 302 300 300 298 299 299 298 299 300 303 302 301 300 301 302 301 300 299 300 300 303 300 300 300 301 301 298 297 298 298 297 297 297 297 297 297 297 297 296 295 295 294
315 314 316 317 321 318 315 307 300 299 299 298 299 301 305 309 309 308 307 307 307 307 307 306 303 302 302 304 304 302 302 303 303 301 300 300 299 298 296 296 299 303 303 301 300 301 302 301 300 300 300 300 300 300 300 300 300 300 298 297 297 298 298 297 297 297 297 297 297 297 296 296 296 295
315 315 316 316 317 318 318 316 313 307 300 298 298 299 300 299 297 301 308 307 306 306 306 306 306 303 305 307 308 308 307 306 305 304 302 300 299 298 297 298 298 301 304 301 299 300 300 300 300 300 301 300 300 301 300 299 299 299 298 298 297 297 297 297 297 297 297 296 296 295 295 295 295 294
314 313 315 316 316 319 325 320 318 317 312 302 301 302 303 302 301 296 294 297 306 307 307 307 305 305 304 305 307 308 307 309 309 308 304 302 301 301 300 300 301 303 302 301 299 299 301 299 299 299 300 301 301 301 300 299 299 299 298 298 297 297 297 297 297 296 296 295 295 295 295 295 294 293
315 314 314 313 313 314 315 314 315 317 315 314 313 312 311 312 310 305 298 295 295 301 307 306 306 306 306 308 306 307 306 307 307 306 307 306 305 303 303 304 304 306 303 302 300 298 300 300 300 299 301 302 301 302 301 299 298 298 298 297 297 297 296 297 296 296 296 295 295 295 295 294 294 293
316 316 316 315 314 312 308 302 300 312 314 314 313 311 310 309 312 312 310 306 304 303 304 306 308 307 307 308 307 307 306 309 310 309 309 309 310 307 304 305 303 306 305 303 302 300 301 302 300 300 301 304 302 302 299 299 298 298 298 297 297 297 296 296 296 296 296 295 295 295 294 294 293 293
315 316 315 314 311 308 304 298 292 296 305 314 313 312 311 311 310 306 301 295 294 297 303 306 307 308 307 304 306 304 304 306 307 309 307 307 306 305 305 306 300 300 305 305 302 299 300 301 300 301 303 302 301 301 300 298 299 298 298 297 296 296 296 296 296 296 296 295 295 295 294 294 293 292
307 309 309 309 307 305 302 294 291 292 301 313 312 313 312 311 310 309 306 298 294 293 293 293 294 295 296 296 295 294 294 299 303 308 307 307 304 304 302 301 298 299 299 301 305 302 300 301 300 301 301 301 300 300 301 300 298 298 298 297 296 296 296 296 296 296 296 295 295 295 294 294 293 293
302 303 307 305 302 302 299 291 291 293 305 311 310 311 309 310 308 306 305 307 306 298 296 295 293 293 293 292 293 294 294 296 301 312 309 308 303 304 301 304 300 298 301 302 303 304 301 300 302 302 302 300 300 300 299 299 299 298 297 297 296 296 296 296 296 296 296 295 295 295 295 294 294 294
301 300 299 298 297 297 293 289 291 292 302 308 308 308 307 306 304 303 303 304 305 305 305 303 302 300 300 300 299 300 299 299 305 307 310 306 306 307 306 298 299 298 300 300 302 304 302 301 301 301 300 298 298 297 297 297 298 298 298 297 297 296 296 296 296 296 295 295 295 295 295 294 294 293
299 299 298 297 290 290 290 289 289 290 293 306 307 306 304 302 303 304 304 305 303 304 305 306 305 303 303 304 303 303 302 303 304 300 301 304 305 305 301 301 301 300 297 296 299 303 300 300 300 301 299 297 292 296 296 296 297 297 297 297 296 296 296 296 295 295 295 295 295 295 295 294 294 293
299 298 297 296 293 290 290 290 289 290 291 296 305 304 304 304 300 295 301 303 301 304 303 304 307 307 306 305 302 301 300 299 298 298 298 299 301 304 302 300 298 299 294 296 296 302 296 297 297 297 296 296 295 295 296 296 297 296 297 296 295 296 294 294 295 294 295 294 294 294 294 294 294 294
299 299 297 296 293 290 290 290 289 289 290 292 299 295 290 289 290 294 297 299 301 302 303 303 304 305 305 305 304 302 299 297 297 296 296 296 297 297 299 301 300 296 293 295 294 299 295 295 295 295 294 294 294 294 294 295 296 295 296 296 296 296 296 295 295 294 294 294 294 294 294 294 294 294
296 296 295 295 294 290 290 289 289 290 292 294 291 288 288 289 290 294 295 297 299 299 300 300 301 300 299 300 301 298 296 296 295 294 295 296 296 297 297 297 297 296 296 297 299 298 296 295 296 294 293 294 293 293 292 293 294 296 296 295 296 296 296 295 294 294 293 293 293 294 293 293 292 293
293 292 291 292 290 290 290 290 289 287 288 288 286 286 287 291 294 295 297 297 297 295 295 296 295 293 293 294 296 295 295 294 293 293 293 293 294 295 295 295 296 296 297 298 298 298 297 296 295 295 295 294 292 292 291 294 294 294 293 295 294 295 295 294 293 293 293 292 292 292 292 292 293 291
291 290 290 290 291 291 291 290 290 289 289 288 287 286 288 296 295 295 295 295 296 296 293 293 291 291 291 291 292 294 295 295 294 294 295 295 295 294 294 294 295 296 297 298 297 297 297 297 296 295 295 295 294 294 293 293 293 293 293 294 293 295 294 294 293 292 292 292 292 292 292 292 291 292
290 290 291 291 292 292 291 292 292 292 292 291 290 290 292 292 291 292 292 294 295 294 291 292 291 291 291 291 293 293 295 295 294 293 293 294 294 294 294 295 295 296 296 296 296 296 296 296 296 295 295 294 295 294 294 293 292 292 292 292 294 293 293 292 292 292 292 292 292 292 292 292 292 292
291 292 293 292 291 291 291 291 292 292 291 292 292 292 291 291 290 290 293 292 292 292 290 290 289 289 289 289 290 290 292 292 293 293 293 293 293 294 294 294 293 293 295 296 296 295 295 295 294 294 293 292 292 290 290 290 291 291 292 292 292 289 292 291 291 291 292 292 292 292 292 292 292 292
292 292 292 292 292 291 292 292 291 291 290 290 290 291 291 291 291 292 293 292 290 289 287 286 285 285 287 288 290 292 292 291 291 292 291 291 291 291 291 288 288 290 292 294 295 296 293 294 295 295 293 292 290 291 289 290 290 290 290 290 290 291 292 292 292 292 293 292 291 290 290 289 290 290
292 291 291 289 290 289 288 288 288 289 289 289 290 291 291 290 292 291 290 291 290 287 288 287 287 285 286 286 287 288 290 290 291 291 291 292 292 291 291 290 289 289 289 290 291 291 293 294 293 293 293 291 290 289 287 287 286 288 288 289 290 290 291 291 291 291 291 290 290 288 288 288 288 288
289 288 288 287 287 287 288 287 287 287 287 287 288 288 288 288 289 288 288 288 287 286 287 284 285 285 284 284 284 287 287 289 290 290 290 290 290 288 288 287 288 289 288 288 289 290 291 292 292 291 290 289 292 290 290 290 290 290 290 290 290 290 291 291 291 291 290 291 290 288 285 285 286 285
287 287 287 287 287 287 287 286 286 286 286 286 286 286 286 286 286 285 285 285 283 284 284 285 284 283 284 284 283 285 285 287 288 289 289 290 290 289 288 287 287 287 288 288 288 289 289 289 290 289 288 290 289 290 294 293 291 290 290 290 289 290 291 291 291 292 291 289 288 285 284 283 284 286
286 287 287 286 286 286 285 284 284 284 285 284 284 283 284 285 284 285 284 283 282 282 283 283 282 282 283 282 283 283 284 286 287 288 287 287 287 287 287 287 286 287 287 287 288 289 289 289 289 287 286 286 285 285 286 293 293 290 288 288 289 290 290 290 289 288 287 286 285 285 282 284 286 287
285 285 285 285 285 284 284 284 284 285 284 284 284 283 283 283 283 284 283 281 283 282 282 281 280 280 281 282 284 285 286 286 286 286 286 286 286 286 286 286 286 286 287 287 287 289 290 288 288 287 286 285 284 284 285 287 288 291 289 286 285 286 286 285 285 285 284 284 286 285 285 283 283 285
284 284 284 284 284 283 284 283 283 283 283 283 283 284 284 283 282 282 282 283 283 283 283 283 283 284 283 282 284 285 286 286 286 286 286 286 286 286 285 285 285 285 285 285 286 287 288 288 287 287 287 285 284 283 282 284 284 287 290 288 287 285 284 284 283 283 284 285 288 287 285 282 283 285
285 284 283 283 284 282 283 282 282 282 283 283 283 283 283 282 282 282 283 282 282 283 283 283 283 282 283 284 285 286 286 286 286 285 284 283 282 282 282 282 282 283 283 284 285 286 286 286 286 286 285 284 284 284 284 285 285 285 287 289 289 285 283 285 285 286 286 286 286 283 281 282 285 286
284 283 282 283 282 282 282 283 283 282 282 283 282 282 282 281 282 282 282 282 283 283 283 283 283 285 285 285 285 285 285 283 283 283 283 283 283 284 284 284 284 285 285 284 284 284 283 283 283 284 284 286 286 285 284 282 281 279 282 285 289 289 287 286 286 287 287 287 286 282 282 280 282 283
283 283 283 283 283 283 283 282 282 281 283 281 282 283 282 282 283 283 283 283 283 283 284 284 285 285 285 286 285 284 283 282 282 283 282 284 285 285 285 285 284 283 282 282 281 282 285 285 285 285 286 283 280 279 280 278 279 282 283 285 288 289 289 289 289 288 287 284 285 284 284 283 280 278
284 285 285 284 283 283 282 282 282 281 282 281 282 283 284 284 284 286 284 284 283 283 284 284 284 284 284 284 284 284 283 283 283 284 285 285 285 284 285 283 282 281 280 280 281 282 283 283 283 283 281 279 280 281 279 277 278 282 283 283 284 287 288 288 289 289 290 287 287 286 284 281 280 280
284 284 283 283 282 282 282 282 281 282 281 282 283 284 285 284 283 283 283 283 283 283 283 284 284 284 284 284 284 285 285 285 284 284 284 285 285 284 283 283 282 281 281 281 281 280 282 282 283 283 281 282 282 281 280 279 279 279 281 283 284 284 286 289 289 289 289 290 290 289 288 286 284 281
282 282 282 282 282 282 282 282 281 281 281 282 282 284 285 283 282 282 281 282 283 284 285 286 286 285 285 284 283 283 284 285 285 284 284 284 284 283 281 281 280 279 278 278 278 279 279 279 278 279 280 280 279 281 280 279 281 283 282 283 283 285 286 286 287 288 288 287 287 289 290 290 290 290
281 281 281 280 280 281 281 281 280 280 281 280 281 283 284 283 283 283 284 284 284 285 285 285 285 284 284 283 281 282 282 285 284 283 283 282 282 281 280 279 279 280 279 277 278 279 278 278 277 277 279 279 279 280 281 282 282 282 283 283 285 286 286 286 286 286 286 287 288 288 287 288 288 288
Wind_Speed
4 4 5 5 5 4 3 3 5 5 5 6 7 7 9 8 10 6 5 5 4 3 3 2 1 2 3 3 2 3 3 4 4 4 4 3 3 6 10 10 10 11 11 11 11 11 11 11 11 10 9 9 9 8 7 8 7 7 7 7 7 7 8 8 7 6 7 7 7 6 5 5 5 5
3 3 3 3 4 3 3 4 4 5 6 7 7 7 5 6 9 7 8 6 3 4 3 2 3 2 3 4 2 2 3 4 5 4 3 3 3 6 9 9 10 10 11 11 11 10 10 10 10 10 9 8 8 8 7 7 6 7 7 7 8 7 6 6 7 7 7 6 6 5 5 5 5 6
4 3 4 3 3 3 4 3 3 4 6 7 6 6 5 5 2 7 6 5 4 3 5 2 3 5 3 4 3 3 3 3 4 3 3 3 4 5 5 8 9 10 10 10 10 9 9 9 9 9 8 8 7 7 7 6 6 7 7 6 6 6 5 4 5 6 6 6 5 5 5 5 5 6
4 4 4 4 4 3 3 4 5 5 4 5 6 6 6 4 3 4 6 6 7 4 5 3 4 6 6 4 5 3 3 3 5 3 3 3 4 2 2 5 8 9 9 9 9 10 10 8 9 9 8 9 8 8 7 7 7 7 8 7 6 6 5 4 5 6 6 6 6 5 5 5 4 3
4 4 4 4 4 3 4 3 4 6 5 4 6 5 6 5 4 5 4 5 3 0 1 4 5 4 6 4 4 5 4 3 2 3 3 4 3 2 3 3 6 8 9 9 9 10 10 9 10 9 9 9 9 8 8 8 8 8 8 8 8 8 7 7 7 7 8 8 7 5 4 4 2 2
4 4 4 4 4 3 3 3 3 3 4 6 5 4 6 6 6 4 5 3 6 6 1 2 3 5 4 4 4 7 7 5 3 4 3 3 3 4 4 4 5 8 8 9 9 9 10 9 9 9 9 9 9 9 8 9 9 9 9 9 9 8 9 8 9 9 9 8 7 6 4 2 2 3
3 4 4 4 3 2 4 2 2 1 3 4 6 5 5 7 7 6 5 6 4 7 4 3 5 5 5 5 7 6 5 5 6 6 5 5 4 3 4 5 4 8 9 9 9 9 9 9 9 9 9 9 10 10 9 10 10 10 10 9 9 9 9 9 9 8 8 8 7 6 4 2 3 2
4 4 4 3 2 2 3 2 1 1 1 3 5 5 6 7 8 7 5 7 7 4 7 5 7 7 7 4 3 3 3 5 5 5 3 2 4 4 5 5 5 7 10 10 10 9 10 10 10 10 11 10 11 10 10 10 10 11 11 11 10 10 10 9 9 8 7 7 7 6 4 3 2 2
4 4 4 3 3 3 4 3 4 2 3 3 2 4 6 7 7 5 6 5 5 8 9 6 3 4 4 2 3 5 6 3 2 2 4 6 6 5 4 5 5 7 10 10 9 8 9 10 11 11 11 11 11 11 10 11 11 11 12 12 12 12 11 10 9 8 7 6 5 4 4 2 3 3
4 4 3 3 3 4 5 3 3 4 4 4 4 3 3 5 6 6 4 5 6 8 8 8 5 3 5 4 3 6 6 7 5 3 3 2 4 5 5 6 6 5 5 5 6 8 9 11 12 11 11 11 10 10 10 11 12 13 14 14 14 13 13 12 11 10 8 7 6 4 1 1 4 5
4 5 5 5 5 6 4 4 5 5 4 5 4 3 3 2 6 6 6 6 6 6 6 4 6 7 6 5 8 6 6 3 2 6 4 5 5 5 7 7 7 5 6 8 11 10 9 9 7 9 10 11 11 11 11 11 12 12 14 14 14 14 13 12 11 10 9 8 6 4 2 3 4 5
6 7 7 8 7 7 5 5 5 4 4 3 5 4 3 4 5 5 4 4 5 6 5 7 7 6 6 4 0 2 4 4 3 5 6 9 8 9 8 9 9 8 7 8 7 9 9 8 9 10 10 12 12 12 11 12 11 13 13 14 14 14 13 13 12 10 9 7 5 4 4 5 5 5
6 6 7 7 7 8 10 11 9 7 6 5 6 4 4 5 5 4 5 5 5 4 5 5 3 4 5 5 5 6 6 9 13 6 4 5 6 5 5 8 6 5 7 8 7 8 9 9 8 8 7 9 11 10 11 8 13 14 14 14 14 13 13 12 12 10 9 7 6 6 6 7 5 5
5 5 5 6 11 12 12 11 11 11 11 9 6 4 6 6 4 3 4 4 5 5 5 6 5 6 7 6 7 7 9 8 1 3 6 7 6 1 5 5 6 6 6 6 8 11 7 8 9 7 10 9 8 7 7 8 8 11 14 14 14 13 13 13 12 11 10 8 7 7 7 6 6 5
5 3 3 4 6 7 6 6 9 10 10 10 10 10 9 7 6 5 5 1 1 2 1 1 1 2 3 2 2 4 5 4 7 5 6 7 3 5 6 9 5 6 10 9 9 11 6 7 10 10 10 9 7 7 8 10 12 13 14 14 13 13 13 12 12 12 11 9 8 8 7 7 6 5
4 4 5 3 3 3 2 4 5 7 7 9 8 7 7 8 10 8 4 3 2 3 1 1 1 3 2 2 3 5 4 7 7 7 6 8 8 8 8 8 8 4 9 10 8 12 3 6 8 9 9 7 7 9 10 12 13 11 12 12 12 12 13 13 12 12 11 10 9 8 8 7 7 6
4 3 6 6 3 1 3 3 3 3 3 3 5 4 4 5 6 7 8 7 2 5 6 7 6 6 5 6 7 6 5 4 6 5 6 7 8 9 10 11 9 5 7 7 8 11 8 7 8 10 8 7 6 7 10 12 13 13 13 12 12 13 13 12 12 12 12 11 9 9 9 8 8 6
4 3 4 4 4 3 5 6 5 3 3 2 2 2 3 3 2 3 4 1 1 2 3 4 5 6 5 5 6 5 5 5 6 5 6 4 6 7 11 11 10 5 7 10 7 6 9 7 7 10 9 6 6 6 10 16 16 16 15 13 12 10 9 10 10 10 11 11 10 10 10 9 7 4
2 4 5 5 5 5 5 5 7 3 3 2 2 2 2 3 4 3 2 3 1 0 1 3 4 3 3 4 3 2 3 4 4 5 7 9 9 6 3 2 3 5 6 7 6 10 5 4 7 8 5 4 4 4 9 15 15 16 17 18 18 16 15 14 12 12 11 10 10 11 10 9 7 4
6 6 6 6 6 5 4 7 9 6 3 1 2 1 1 3 3 3 1 1 1 2 2 3 3 4 4 4 3 2 2 3 4 4 2 1 1 3 4 8 4 4 4 4 5 2 3 2 3 1 1 2 3 2 2 10 15 16 17 18 18 18 16 14 11 12 11 11 11 11 10 9 7 6
8 8 7 7 5 5 5 8 10 9 4 0 1 0 1 3 4 5 6 6 5 5 6 5 5 6 5 6 5 5 5 5 2 1 2 5 3 3 6 5 3 3 2 1 4 2 1 1 1 1 2 1 2 4 5 4 10 15 17 19 20 19 18 16 15 14 12 11 11 11 11 10 9 6
8 10 15 9 6 6 5 8 10 10 6 4 4 3 1 2 3 5 7 5 4 2 3 5 5 5 7 7 8 7 7 6 3 5 8 4 1 4 3 7 2 5 3 2 4 2 2 2 2 2 1 0 1 1 1 1 5 11 13 16 15 16 16 14 13 14 10 8 9 11 12 12 8 4
6 6 7 9 8 5 4 7 8 10 7 4 4 4 4 4 3 2 4 5 6 7 7 5 5 5 4 2 2 3 5 7 2 2 4 1 3 8 7 2 1 4 3 1 1 2 2 3 1 3 1 2 0 2 2 2 2 4 4 5 6 9 12 14 12 7 1 4 8 12 13 13 7 4
5 5 4 5 7 6 4 4 5 6 6 4 3 3 4 3 3 3 4 1 2 3 3 5 4 4 5 4 2 2 3 4 5 6 5 1 2 5 4 3 3 3 3 2 1 2 1 2 1 1 1 0 2 3 3 4 3 2 2 2 4 7 8 5 5 4 4 5 10 13 13 12 8 4
5 5 4 3 6 7 5 4 4 3 4 3 4 3 3 1 3 4 3 5 4 3 3 3 4 5 5 3 2 1 2 5 6 6 6 5 3 1 2 3 3 5 2 2 3 2 2 1 2 2 2 3 1 2 1 2 2 2 2 2 0 2 1 0 1 4 6 10 12 14 14 12 10 7
4 4 3 3 5 6 6 5 3 4 4 5 4 3 4 4 3 1 2 3 3 2 3 3 4 5 5 5 2 2 4 4 4 5 5 6 5 5 4 1 1 1 3 5 3 2 2 4 2 1 1 3 0 2 4 2 2 3 4 3 2 0 0 3 5 6 5 5 6 7 9 11 7 7
2 2 3 3 6 7 6 6 5 4 4 4 3 3 5 6 5 2 2 3 5 6 6 6 6 6 5 5 5 3 4 4 4 5 5 5 6 7 7 7 7 6 1 2 2 2 3 2 3 2 2 2 4 2 5 4 3 3 4 2 2 2 1 2 4 4 4 4 5 5 6 6 7 5
3 4 4 5 8 6 6 6 5 4 5 4 4 4 5 6 5 4 6 6 5 5 6 6 5 5 4 4 4 4 3 4 4 5 4 5 5 6 6 6 6 5 6 6 5 5 5 5 5 3 5 5 4 4 4 2 3 2 3 2 2 1 1 2 2 1 0 2 2 3 4 1 1 2
3 3 5 5 3 3 4 4 4 3 3 4 3 4 5 5 6 6 5 5 6 7 5 4 2 3 4 2 1 2 2 3 3 3 4 4 5 4 5 6 6 6 6 5 6 5 5 5 4 2 4 2 5 4 5 4 3 3 2 0 2 1 1 0 1 1 1 2 2 2 2 3 4 1
2 4 6 10 10 9 7 6 7 6 6 5 6 6 6 4 4 4 5 5 6 6 4 4 4 3 4 3 3 3 3 6 5 3 3 4 5 4 5 6 7 6 6 5 6 5 5 4 4 4 4 3 2 4 3 4 1 1 1 3 3 1 1 1 2 1 3 2 1 1 3 2 4 3
8 10 11 9 10 11 13 12 10 10 9 10 9 7 7 6 5 2 3 2 3 4 4 2 2 1 1 1 4 5 5 5 5 4 3 4 4 4 4 5 4 5 6 5 4 5 4 3 2 2 3 1 3 3 2 3 4 4 2 2 3 3 2 2 2 4 4 4 4 4 3 4 4 5
5 7 8 11 9 9 10 9 9 8 8 7 7 7 7 6 6 4 4 5 4 2 1 2 2 3 4 4 3 4 5 5 5 4 4 3 4 5 3 4 5 4 5 7 7 7 6 5 5 3 2 2 2 0 2 2 3 2 2 2 2 3 1 5 4 5 3 2 2 4 4 4 4 4
7 9 10 9 10 9 9 9 8 8 8 8 7 8 7 7 7 6 6 4 3 2 4 4 4 3 3 3 4 4 5 5 4 4 5 5 5 5 6 6 4 4 5 6 6 7 6 6 4 3 2 1 3 3 2 0 2 1 1 1 2 1 1 2 3 3 2 1 1 2 4 5 4 5
9 8 9 8 8 8 7 8 7 7 6 6 7 7 7 7 6 6 5 4 3 2 4 2 4 3 4 4 4 5 5 5 5 5 5 4 4 5 5 5 4 3 4 4 5 5 6 6 5 3 2 1 0 1 1 1 3 0 1 2 2 2 0 1 1 2 4 3 4 5 3 5 5 3
8 8 8 7 7 6 6 6 6 5 6 5 5 6 6 6 6 5 5 5 4 2 4 5 4 3 5 4 4 5 4 5 4 5 4 5 6 5 4 5 4 4 4 3 4 4 4 5 6 5 6 7 5 3 5 2 0 1 0 0 1 1 1 3 4 4 3 2 1 2 3 5 6 5
7 6 7 7 6 5 6 5 4 5 5 4 4 4 5 6 5 5 5 4 3 3 4 4 4 4 5 5 4 4 3 4 5 5 5 5 4 4 4 4 2 3 3 3 4 3 3 4 4 4 2 3 3 3 2 3 3 1 2 1 2 2 3 3 1 1 1 1 2 2 2 5 6 6
7 6 6 6 5 5 5 4 4 4 4 4 4 3 3 5 5 5 4 1 4 5 4 4 4 4 5 4 5 4 3 4 4 4 4 4 3 3 4 4 4 4 4 4 3 2 2 2 1 1 1 1 2 2 4 4 6 3 1 2 2 3 3 1 0 2 3 3 3 4 3 2 5 6
6 6 6 5 5 4 4 3 4 4 4 4 3 4 5 4 4 4 3 5 6 5 5 5 4 4 4 3 5 4 3 3 4 4 3 4 4 4 4 4 4 4 4 5 4 3 2 2 3 2 2 3 3 2 2 3 2 2 3 2 3 4 1 1 1 3 3 3 3 2 1 2 5 6
6 6 6 5 5 4 4 3 3 4 4 4 4 4 5 5 5 6 6 5 4 5 4 5 4 4 4 4 4 4 4 4 5 4 4 4 3 2 3 3 4 4 4 5 5 4 4 3 3 1 2 1 1 1 3 2 3 5 5 5 5 3 2 3 5 4 3 3 3 2 2 4 5 6
5 5 4 4 3 3 5 5 5 5 5 5 4 4 4 4 4 4 4 4 4 4 5 5 4 5 5 5 5 5 5 4 4 3 3 2 1 1 2 2 2 3 4 5 5 6 4 2 1 1 2 5 5 4 4 2 2 2 6 5 5 4 3 2 4 3 3 4 2 1 4 5 5 5
4 5 4 4 5 5 6 5 5 4 5 3 3 3 3 3 4 5 4 5 5 5 5 5 5 5 5 4 4 5 5 4 4 4 3 3 3 4 4 4 4 3 4 5 4 4 4 3 4 5 2 1 1 1 1 2 3 5 6 7 6 3 6 6 4 3 4 1 0 2 4 5 4 4
5 6 5 6 5 4 3 3 3 3 4 3 4 5 4 5 5 5 6 6 5 5 5 5 5 4 4 4 3 4 5 4 3 3 2 3 4 5 5 3 4 3 5 3 2 2 5 4 3 1 2 1 2 3 1 1 3 5 5 5 7 8 6 4 7 7 5 3 1 3 3 3 1 2
5 5 5 3 3 3 4 4 4 4 4 4 5 5 5 5 5 6 5 5 5 5 5 4 3 4 3 3 2 3 4 3 2 2 3 3 3 4 5 5 3 2 3 4 4 3 5 4 5 6 5 4 1 1 1 3 3 4 4 5 6 6 8 8 5 5 7 8 8 7 6 4 1 3
4 4 4 3 4 4 5 5 5 5 4 5 5 5 5 5 5 5 4 4 4 3 2 2 2 2 2 1 2 3 3 2 1 1 3 4 5 4 3 3 2 0 2 3 5 6 6 6 4 4 3 2 1 0 3 3 4 5 4 4 4 5 6 6 7 5 3 4 8 11 13 12 11 12
3 4 5 4 5 5 5 5 6 5 5 5 4 5 5 5 4 4 4 4 3 3 2 2 2 1 1 1 2 3 3 3 3 4 3 4 5 4 3 2 4 5 5 2 3 4 5 4 4 3 1 2 1 1 3 1 2 4 5 4 6 5 5 5 6 6 6 6 6 3 6 9 12 13
Wind_Direction
168 154 171 176 175 186 173 153 157 158 157 159 159 166 166 167 144 154 165 199 171 195 150 142 178 128 121 115 106 106 107 115 109 102 98 105 113 130 128 130 131 131 132 136 138 137 134 131 130 128 122 123 120 116 114 117 118 115 111 107 106 107 106 105 102 104 103 94 89 86 83 71 61 73
151 143 153 154 178 172 165 176 161 158 165 158 167 171 171 166 158 157 166 193 193 167 174 149 153 143 133 126 109 111 105 110 109 105 106 106 123 140 135 138 138 139 142 144 145 143 140 139 138 133 127 124 127 130 130 131 134 133 128 124 122 122 123 127 130 125 117 116 109 95 80 70 58 49
146 151 168 186 190 177 175 157 167 175 161 167 164 168 158 186 156 147 135 141 245 165 180 157 135 150 166 151 140 122 119 117 111 112 110 112 131 139 144 146 150 151 153 152 149 145 148 149 148 146 141 139 143 148 148 149 150 143 131 130 135 135 126 141 163 142 134 118 105 96 83 68 51 42
160 158 176 198 198 197 171 161 175 186 178 152 163 166 167 166 156 145 145 154 187 201 171 148 144 151 155 156 139 139 126 116 123 122 112 119 125 121 149 164 165 166 164 161 159 157 155 158 160 159 159 159 160 164 165 169 160 140 138 138 137 134 129 122 127 134 124 117 111 99 81 65 53 28
157 174 182 199 214 173 158 172 164 166 176 160 169 162 153 167 169 151 132 140 136 64 95 137 148 150 144 156 159 149 141 129 118 108 125 137 140 152 172 185 196 186 180 174 173 165 166 170 171 168 172 171 171 170 170 158 148 148 149 146 141 139 135 123 121 125 125 121 111 103 84 66 45 1
170 163 175 203 200 193 148 160 161 147 156 163 156 162 165 175 186 181 133 151 151 176 82 92 99 144 169 155 180 164 161 173 157 150 152 164 174 176 190 193 212 213 200 189 186 177 180 183 179 175 182 179 178 175 166 159 156 156 157 156 152 150 145 137 135 139 138 127 119 106 92 80 51 39
158 145 155 188 174 174 138 116 47 178 160 167 177 173 165 179 188 185 171 139 156 165 184 161 150 171 181 178 188 190 192 174 172 164 180 182 191 190 186 202 218 220 215 208 199 191 191 193 187 186 190 187 187 182 173 166 163 161 162 159 157 150 146 146 147 143 137 130 118 111 109 70 47 35
156 156 144 172 147 133 97 54 11 9 347 162 189 160 160 170 182 183 176 174 149 157 149 204 178 182 172 218 203 176 142 160 185 193 173 177 195 192 192 199 217 221 218 221 217 208 201 202 200 198 198 196 194 189 180 172 168 164 161 161 156 151 148 147 147 148 147 137 134 135 103 49 19 326
152 149 156 161 115 111 94 30 20 16 63 76 90 146 158 161 170 164 172 172 155 150 176 172 205 172 194 172 167 169 162 171 198 177 188 199 201 202 203 203 219 228 218 223 230 229 223 217 211 207 206 205 201 193 186 179 173 169 165 162 159 158 155 151 146 138 131 131 138 113 88 32 318 297
149 141 120 110 110 91 99 85 86 80 75 62 57 76 108 143 147 149 150 157 163 165 171 161 153 180 180 177 192 191 184 170 182 206 219 226 218 201 209 221 217 213 206 209 224 230 235 235 228 219 216 216 209 200 194 188 182 176 171 166 164 163 161 157 151 147 145 142 126 112 132 273 283 298
70 72 72 62 60 70 77 108 106 98 80 75 60 70 85 97 129 139 149 148 155 162 153 171 184 174 204 179 193 203 186 195 197 179 168 232 229 219 208 220 225 215 219 219 216 217 216 220 221 224 227 227 217 207 202 196 190 182 175 171 169 166 163 160 156 155 155 145 138 156 218 268 283 299
84 90 90 86 83 87 79 77 59 45 60 73 69 23 78 97 109 123 130 133 151 156 170 174 182 193 180 215 127 82 120 182 255 221 190 201 209 220 219 218 210 215 210 221 222 226 225 231 226 225 227 228 224 215 208 203 195 190 183 178 174 169 164 162 160 161 153 147 160 192 220 238 260 283
88 88 89 90 97 95 90 84 85 87 99 102 85 48 45 44 56 73 86 121 140 162 171 195 167 157 186 200 165 158 177 192 210 197 182 235 234 229 227 242 234 219 212 227 226 228 212 217 219 213 221 226 216 221 210 206 203 195 187 182 177 171 166 164 164 159 152 160 183 206 221 233 240 255
77 80 87 91 97 99 98 95 88 84 77 69 86 102 90 83 71 53 80 85 112 130 167 201 178 178 204 196 192 190 207 210 161 128 182 221 228 207 252 289 250 213 205 222 235 237 218 209 227 208 224 227 198 208 194 207 196 197 191 186 179 173 169 166 166 160 160 176 195 210 221 228 237 245
103 79 68 71 69 74 84 92 104 103 97 95 90 87 100 115 119 108 75 29 35 92 116 135 107 154 161 214 219 222 221 210 208 199 186 213 185 204 214 237 270 207 195 215 229 250 216 188 225 223 225 221 198 196 206 196 198 196 193 188 180 175 173 171 171 164 172 184 197 211 220 231 234 236
112 94 75 62 46 48 84 117 86 71 87 106 112 115 113 115 126 142 148 159 120 115 87 32 271 157 137 257 209 208 188 213 214 219 199 197 200 210 218 231 232 239 187 205 216 248 202 180 226 241 234 217 204 204 192 187 195 194 192 188 180 177 179 180 178 172 179 187 195 209 225 232 231 232
77 85 95 85 69 2 13 50 70 107 98 90 112 137 152 146 131 138 149 165 181 165 157 167 209 207 186 195 232 216 207 195 211 212 216 222 213 211 217 228 237 243 181 187 217 240 229 172 211 234 232 200 204 193 186 176 176 185 189 184 180 183 187 188 185 179 185 187 192 209 221 228 228 223
124 199 110 105 88 61 42 25 16 29 75 77 72 42 19 18 31 78 108 130 300 232 185 172 191 231 173 203 214 214 163 157 200 197 234 214 222 226 228 232 230 237 152 188 198 233 233 195 200 225 231 192 196 196 181 179 180 179 176 176 175 179 193 205 197 196 193 192 196 209 218 223 227 228
97 50 60 74 69 48 34 18 353 359 17 52 55 43 5 2 353 3 18 79 102 238 254 216 237 252 228 244 250 262 204 229 230 192 203 206 219 216 242 301 288 270 208 200 163 237 233 174 198 233 219 203 194 189 181 181 178 175 175 178 178 178 192 206 198 203 207 200 204 215 218 219 221 227
43 47 51 75 72 66 53 358 357 355 320 57 88 48 2 10 14 23 335 330 306 286 272 245 245 253 251 232 222 220 217 240 255 263 242 153 181 203 209 227 246 229 243 187 191 285 12 353 179 279 43 134 185 216 202 199 186 179 177 178 174 182 194 203 202 209 207 203 209 219 221 217 216 220
46 48 53 57 61 52 40 359 353 356 329 133 100 111 26 33 35 22 3 344 321 324 325 325 312 301 290 283 282 275 247 230 239 103 342 274 208 206 246 263 260 276 338 7 174 176 217 275 84 37 351 57 171 196 206 191 192 183 185 186 182 180 190 201 206 217 209 202 211 220 224 218 212 207
55 47 48 51 55 49 34 5 5 5 15 46 15 46 66 37 33 16 357 346 325 304 308 309 308 303 303 316 328 319 312 312 229 178 227 235 65 276 263 256 353 360 330 358 341 143 248 174 170 154 152 5 293 340 39 98 191 190 192 195 189 189 196 199 208 220 208 200 217 228 229 226 200 191
63 55 51 50 49 53 22 19 17 15 23 57 31 10 45 51 52 343 337 360 353 351 350 339 350 325 320 326 305 307 319 330 316 242 260 183 215 252 266 7 322 285 289 268 327 185 245 138 271 124 167 276 318 63 49 49 126 173 183 192 197 204 202 210 222 239 259 219 230 235 236 231 186 190
57 57 51 49 45 55 57 41 34 29 27 73 55 46 58 41 346 321 319 352 343 322 335 313 310 284 299 317 6 8 348 336 357 9 7 336 251 232 249 234 185 204 227 270 268 172 305 131 199 115 110 229 327 12 34 31 48 60 94 161 198 219 231 269 330 319 266 235 236 237 238 240 195 186
72 46 37 33 36 33 38 33 36 45 49 64 88 80 109 57 349 344 320 337 336 314 309 304 313 315 309 325 56 32 22 14 11 9 11 21 10 351 261 272 273 266 277 274 279 191 215 194 153 63 66 95 174 102 72 103 86 120 140 176 38 50 103 116 236 273 245 227 230 234 236 242 216 194
59 30 13 11 9 11 23 37 52 62 61 36 52 32 360 329 340 299 276 277 299 319 334 333 350 356 351 344 12 50 55 35 30 30 21 12 21 45 44 48 34 7 347 331 45 341 37 18 5 80 97 99 17 141 130 111 135 149 142 135 114 74 171 216 207 234 237 221 226 231 232 235 222 219
32 359 353 344 1 359 2 31 56 71 68 58 41 358 3 357 349 1 35 40 45 40 28 29 23 10 5 357 357 29 47 36 40 44 32 27 41 55 56 62 79 101 138 10 45 96 103 60 358 75 60 33 88 31 42 44 17 14 64 83 167 200 277 282 251 229 212 203 216 225 235 239 224 212
25 8 357 334 330 344 2 46 75 57 36 33 360 4 359 2 14 45 49 48 47 48 38 34 24 8 350 354 19 26 44 64 66 57 48 48 48 61 62 57 62 60 55 49 49 53 83 97 51 55 97 82 62 68 73 24 63 48 76 12 37 65 91 136 170 156 123 147 136 203 178 181 294 127
8 322 306 309 339 10 57 58 109 78 52 17 12 31 21 28 41 39 55 58 52 50 43 39 24 6 359 9 344 334 69 88 65 61 47 56 54 50 62 61 55 47 44 28 34 35 53 86 95 61 74 104 127 163 145 182 165 196 177 151 297 331 39 69 110 111 111 155 126 105 145 182 238 175
35 40 56 57 57 55 49 51 41 35 21 37 52 38 31 37 43 51 46 39 60 65 62 63 46 16 358 355 348 9 25 56 32 27 45 45 32 25 47 56 29 22 33 24 28 28 36 53 98 93 64 20 97 159 168 126 28 20 29 193 210 16 358 101 133 134 109 128 192 228 260 204 231 192
45 54 60 67 68 71 66 65 61 51 39 37 28 25 22 22 14 52 71 88 109 111 109 106 93 25 324 347 29 31 42 44 28 23 70 74 25 37 43 71 34 8 352 3 30 37 62 74 70 106 98 65 37 69 108 86 104 134 232 227 156 163 218 172 185 176 186 190 193 224 240 246 263 242
52 67 59 53 43 46 45 40 37 33 37 39 32 26 18 13 14 25 80 73 61 40 60 79 31 13 15 40 54 64 58 46 22 3 39 47 38 15 13 47 7 353 360 4 4 2 9 13 19 29 112 136 113 7 35 82 154 181 189 228 237 282 152 191 190 216 203 158 181 222 240 231 241 250
60 56 52 46 45 42 47 41 38 28 27 26 24 28 21 14 16 16 24 37 28 4 66 71 78 69 65 44 18 43 63 44 34 7 57 40 61 39 56 68 38 19 19 5 359 0 358 344 360 40 62 115 133 141 123 35 318 211 199 160 210 259 287 221 186 213 130 85 264 302 292 274 237 220
70 61 64 52 53 48 48 48 42 33 29 26 20 11 11 18 22 18 14 30 5 42 80 93 85 80 77 48 43 58 62 40 34 27 48 40 50 66 51 56 31 19 29 12 4 358 348 352 352 360 20 356 219 113 137 152 266 282 217 190 141 105 105 137 216 187 166 196 204 238 275 290 287 254
61 63 65 54 51 52 55 55 44 36 41 30 25 11 0 12 14 8 18 3 346 42 80 60 69 69 75 74 56 75 68 80 57 44 38 62 57 71 70 69 36 18 18 14 360 350 3 5 14 12 3 7 10 350 31 61 53 338 273 44 158 163 260 227 199 226 215 234 141 196 273 288 290 272
59 61 73 65 53 52 60 48 43 42 43 34 32 8 14 2 2 6 358 340 6 9 53 68 61 68 75 81 70 63 54 61 61 53 44 43 55 57 61 58 44 8 8 21 340 331 355 20 38 51 42 358 27 355 310 356 54 144 120 209 295 237 261 274 230 140 142 242 197 182 235 265 276 284
73 61 68 70 60 57 59 36 39 36 41 35 25 21 22 7 345 346 342 357 62 58 44 58 65 63 78 82 77 65 54 63 69 57 57 42 52 59 58 28 18 357 3 329 302 312 5 356 42 81 89 62 59 341 291 307 327 318 135 223 266 245 235 261 43 262 241 199 219 194 222 226 266 275
78 68 67 60 58 52 52 38 35 34 26 28 27 21 18 19 5 359 353 41 39 47 50 62 66 69 70 80 94 86 72 64 70 60 47 39 43 31 36 9 345 344 327 304 311 332 336 324 17 65 76 39 27 343 320 320 1 314 224 232 287 271 200 248 280 241 265 228 224 246 154 259 261 256
69 72 66 64 50 51 51 33 41 35 20 28 33 32 24 20 21 20 31 34 31 45 52 62 57 60 67 56 54 60 60 54 51 48 44 39 47 39 360 355 346 330 348 338 337 348 351 7 360 45 114 145 167 203 194 215 265 253 274 254 222 263 269 203 242 256 259 282 280 301 256 242 272 293
68 75 78 79 63 58 50 40 37 29 32 23 32 31 44 40 43 40 36 31 44 48 57 55 55 55 49 48 61 66 64 65 60 43 37 23 2 30 19 351 340 332 344 343 349 339 349 321 276 234 193 196 211 210 192 201 267 298 311 304 207 202 236 165 224 233 276 253 220 18 316 339 334 319
91 80 65 66 59 46 48 38 34 32 36 20 34 42 48 51 60 56 52 44 47 52 52 46 52 61 56 53 53 72 68 44 43 36 21 12 11 11 358 356 350 3 3 343 350 1 355 295 277 287 251 211 295 38 28 16 340 313 322 306 318 277 248 229 224 198 231 199 187 310 296 290 279 332
73 64 50 46 54 45 53 53 38 47 38 28 36 41 41 38 44 51 56 49 53 53 56 51 51 55 53 50 66 73 78 66 49 24 15 19 9 352 351 2 345 349 8 326 305 296 285 308 324 358 37 47 36 56 358 236 268 298 289 301 311 322 334 295 258 236 213 194 242 294 294 328 34 310
68 73 69 61 62 60 53 54 46 47 40 36 40 38 46 40 31 34 38 44 44 54 56 57 53 60 51 48 54 79 85 70 56 32 9 5 5 344 326 323 324 299 260 274 290 300 323 340 17 20 21 59 37 115 287 273 257 266 291 311 307 322 323 329 327 281 248 229 216 212 198 208 246 283
92 85 71 67 65 57 50 47 46 40 43 40 43 48 53 53 48 38 44 49 52 55 47 66 43 40 25 24 44 48 68 99 111 47 360 347 351 339 324 316 316 334 62 40 19 6 353 354 6 14 32 337 302 51 303 318 326 315 307 298 305 335 327 322 326 337 326 278 244 239 244 238 230 235
81 77 73 57 59 53 53 49 48 42 39 34 40 50 59 57 55 51 46 42 41 32 33 12 355 356 346 14 57 43 359 336 350 355 8 356 353 352 10 48 74 61 46 21 54 7 347 338 326 2 33 345 305 274 290 278 307 317 321 336 334 327 325 334 342 343 336 328 317 295 266 263 253 257